Pagina principale
METAR-TAF:

METAR-TAF

Aeroporti :

Caldwell, New Jersey, Stati Uniti

latitudine: 40-52-35N, longitudine: 074-16-59W, altezza: 52 m

Osservazione

Il bollettino è stato emesso 8 minuti fa, alle 00:53 UTC
Vento calmo
Temperature 8°C
Umidità 76%
Pressione 1019 hPa
Visibilità: 16.1 km
Cielo sereno

METAR: KCDW 170053Z 00000KT 10SM CLR 08/04 A3008 RMK AO2 SLP192 T00830044

Ora: 21:01 (01:01 UTC)


TAF: mancante

Osservazioni e previsioni meteorologiche di più di 4000 aeroporti (messaggi METAR e TAF).

Le stazioni disponibili sono rappresentate dai dischi gialli e rossi sulla carta.

Puntare il mouse per vedere il nome della stazione.

Clicca sopra per visualizzare le osservazioni e previsioni meteorologiche.

Per cambiare la mappa : fare clic sui pulsanti verdi con una croce nera per ingrandire, il pulsante verde con un trattino per diminuire, o sulla freccia verde per le mappe adiacenti.


METAR-TAF: